| time (UTC) | temp C | wind direction | speed KPH | gust KPH | rain 1hr cm | rain 24hr cm | rain mn cm | humidity % | barometer mb |
| 20260506004517 | 26 | 146 | 0.0 | 0.0 | 0.00 | 0.00 | 0.00 | 79 | 1005.3 |
| 20260506004014 | 26 | 155 | 0.0 | 0.0 | 0.00 | 0.00 | 0.00 | 79 | 1005.4 |
| 20260506003510 | 27 | 88 | 0.0 | 3.2 | 0.00 | 0.00 | 0.00 | 79 | 1005.1 |
| 20260506003006 | 27 | 152 | 0.0 | 0.0 | 0.00 | 0.00 | 0.00 | 78 | 1005.3 |
| 20260506002502 | 27 | 150 | 0.0 | 0.0 | 0.00 | 0.00 | 0.00 | 78 | 1005.1 |
| 20260506001958 | 27 | 189 | 1.6 | 1.6 | 0.00 | 0.00 | 0.00 | 78 | 1005.2 |
| 20260506001455 | 27 | 210 | 1.6 | 1.6 | 0.00 | 0.00 | 0.00 | 78 | 1005.6 |
| 20260506000952 | 27 | 207 | 0.0 | 1.6 | 0.00 | 0.00 | 0.00 | 78 | 1005.2 |
| 20260506000449 | 27 | 160 | 0.0 | 0.0 | 0.00 | 0.00 | 0.00 | 78 | 1005.2 |
| 20260505235946 | 27 | 155 | 0.0 | 0.0 | 0.00 | 0.00 | 0.00 | 78 | 1005.3 |
| 20260505235445 | 27 | 172 | 0.0 | 0.0 | 0.00 | 0.00 | 0.00 | 78 | 1005.2 |
| 20260505234941 | 27 | 151 | 0.0 | 0.0 | 0.00 | 0.00 | 0.00 | 78 | 1005.3 |
| 20260505234439 | 27 | 158 | 0.0 | 1.6 | 0.00 | 0.00 | 0.00 | 77 | 1005.1 |
| 20260505233935 | 27 | 245 | 3.2 | 3.2 | 0.00 | 0.00 | 0.00 | 77 | 1005.2 |
| 20260505233433 | 27 | 168 | 0.0 | 0.0 | 0.00 | 0.00 | 0.00 | 77 | 1005.4 |
| 20260505232930 | 27 | 172 | 1.6 | 1.6 | 0.00 | 0.00 | 0.00 | 77 | 1005.3 |
| 20260505232428 | 28 | 149 | 0.0 | 0.0 | 0.00 | 0.00 | 0.00 | 77 | 1005.1 |
| 20260505231925 | 28 | 150 | 0.0 | 0.0 | 0.00 | 0.00 | 0.00 | 77 | 1005.2 |
| 20260505231422 | 27 | 139 | 0.0 | 0.0 | 0.00 | 0.00 | 0.00 | 77 | 1005.4 |
| 20260505230920 | 27 | 144 | 6.4 | 8.0 | 0.00 | 0.00 | 0.00 | 76 | 1005.3 |
| 20260505230418 | 28 | 271 | 1.6 | 3.2 | 0.00 | 0.00 | 0.00 | 76 | 1005.4 |
| 20260505225914 | 28 | 10 | 1.6 | 3.2 | 0.00 | 0.00 | 0.00 | 76 | 1005.3 |
| 20260505225411 | 28 | 173 | 0.0 | 1.6 | 0.00 | 0.00 | 0.00 | 76 | 1005.3 |
| 20260505224906 | 28 | 106 | 0.0 | 0.0 | 0.00 | 0.00 | 0.00 | 75 | 1005.3 |
| 20260505224404 | 28 | 272 | 3.2 | 4.8 | 0.00 | 0.00 | 0.00 | 75 | 1005.3 |
| 20260505223901 | 28 | 184 | 3.2 | 4.8 | 0.00 | 0.00 | 0.00 | 75 | 1004.9 |
| 20260505223358 | 28 | 204 | 4.8 | 4.8 | 0.00 | 0.00 | 0.00 | 75 | 1005.2 |
| 20260505222853 | 28 | 199 | 4.8 | 4.8 | 0.00 | 0.00 | 0.00 | 74 | 1005.3 |
| 20260505222350 | 28 | 161 | 1.6 | 1.6 | 0.00 | 0.00 | 0.00 | 74 | 1005.2 |
| 20260505221847 | 28 | 224 | 4.8 | 8.0 | 0.00 | 0.00 | 0.00 | 74 | 1005.1 |
| 20260505221344 | 28 | 154 | 0.0 | 0.0 | 0.00 | 0.00 | 0.00 | 75 | 1005.3 |
| 20260505220841 | 29 | 191 | 9.7 | 12.9 | 0.00 | 0.00 | 0.00 | 73 | 1005.1 |
| 20260505220338 | 29 | 300 | 4.8 | 4.8 | 0.00 | 0.00 | 0.00 | 73 | 1005.3 |
| 20260505215836 | 29 | 191 | 4.8 | 8.0 | 0.00 | 0.00 | 0.00 | 73 | 1005.2 |
| 20260505215333 | 29 | 243 | 3.2 | 4.8 | 0.00 | 0.00 | 0.00 | 74 | 1005.2 |
| 20260505214831 | 29 | 199 | 8.0 | 12.9 | 0.00 | 0.00 | 0.00 | 73 | 1005.5 |
| 20260505214329 | 28 | 182 | 3.2 | 4.8 | 0.00 | 0.00 | 0.00 | 75 | 1005.6 |
| 20260505213825 | 28 | 149 | 0.0 | 1.6 | 0.00 | 0.00 | 0.00 | 74 | 1005.8 |
| 20260505213323 | 29 | 198 | 4.8 | 4.8 | 0.00 | 0.00 | 0.00 | 74 | 1005.8 |
| 20260505212819 | 29 | 167 | 4.8 | 4.8 | 0.00 | 0.00 | 0.00 | 74 | 1005.9 |
| 20260505212317 | 30 | 195 | 6.4 | 11.3 | 0.00 | 0.00 | 0.00 | 72 | 1005.8 |
| 20260505211812 | 29 | 131 | 3.2 | 3.2 | 0.00 | 0.00 | 0.00 | 74 | 1005.8 |
| 20260505211310 | 30 | 240 | 1.6 | 4.8 | 0.00 | 0.00 | 0.00 | 72 | 1005.9 |
| 20260505210806 | 30 | 238 | 1.6 | 3.2 | 0.00 | 0.00 | 0.00 | 73 | 1005.8 |
| 20260505210303 | 29 | 261 | 1.6 | 4.8 | 0.00 | 0.00 | 0.00 | 73 | 1006.0 |
| 20260505205800 | 29 | 268 | 1.6 | 3.2 | 0.00 | 0.00 | 0.00 | 73 | 1006.1 |
| 20260505205259 | 29 | 228 | 3.2 | 4.8 | 0.00 | 0.00 | 0.00 | 74 | 1006.1 |
| 20260505204755 | 29 | 180 | 4.8 | 8.0 | 0.00 | 0.00 | 0.00 | 73 | 1006.1 |
| 20260505204253 | 29 | 296 | 4.8 | 8.0 | 0.00 | 0.00 | 0.00 | 73 | 1006.4 |
| 20260505203750 | 30 | 304 | 1.6 | 3.2 | 0.00 | 0.00 | 0.00 | 73 | 1006.4 |
| 20260505203247 | 29 | 109 | 1.6 | 3.2 | 0.00 | 0.00 | 0.00 | 74 | 1006.7 |
| 20260505202742 | 29 | 147 | 0.0 | 1.6 | 0.00 | 0.00 | 0.00 | 74 | 1006.8 |
| 20260505202239 | 29 | 260 | 6.4 | 11.3 | 0.00 | 0.00 | 0.00 | 73 | 1006.5 |
| 20260505201735 | 29 | 237 | 6.4 | 8.0 | 0.00 | 0.00 | 0.00 | 73 | 1006.8 |
| 20260505201233 | 28 | 183 | 1.6 | 3.2 | 0.00 | 0.00 | 0.00 | 74 | 1006.7 |
| 20260505200732 | 28 | 200 | 1.6 | 1.6 | 0.00 | 0.00 | 0.00 | 74 | 1006.9 |
| 20260505200228 | 29 | 273 | 6.4 | 8.0 | 0.00 | 0.00 | 0.00 | 74 | 1007.2 |
| 20260505195723 | 29 | 282 | 4.8 | 8.0 | 0.00 | 0.00 | 0.00 | 74 | 1006.9 |
| 20260505195221 | 28 | 111 | 0.0 | 0.0 | 0.00 | 0.00 | 0.00 | 75 | 1007.2 |
| 20260505194719 | 30 | 302 | 1.6 | 3.2 | 0.00 | 0.00 | 0.00 | 74 | 1007.1 |
| 20260505194215 | 30 | 158 | 1.6 | 4.8 | 0.00 | 0.00 | 0.00 | 74 | 1007.2 |
| 20260505193710 | 29 | 251 | 4.8 | 8.0 | 0.00 | 0.00 | 0.00 | 74 | 1007.1 |
| 20260505193208 | 28 | 223 | 6.4 | 9.7 | 0.00 | 0.00 | 0.00 | 75 | 1007.0 |
| 20260505192707 | 28 | 265 | 6.4 | 8.0 | 0.00 | 0.00 | 0.00 | 75 | 1007.1 |
| 20260505192204 | 28 | 231 | 6.4 | 8.0 | 0.00 | 0.00 | 0.00 | 75 | 1007.0 |
| 20260505191702 | 28 | 232 | 1.6 | 4.8 | 0.00 | 0.00 | 0.00 | 76 | 1007.1 |
| 20260505191200 | 28 | 266 | 4.8 | 8.0 | 0.00 | 0.00 | 0.00 | 76 | 1007.3 |
| 20260505190656 | 28 | 139 | 4.8 | 8.0 | 0.00 | 0.00 | 0.00 | 75 | 1007.4 |
| 20260505190155 | 28 | 234 | 1.6 | 4.8 | 0.00 | 0.00 | 0.00 | 76 | 1007.3 |
| 20260505185653 | 28 | 155 | 1.6 | 3.2 | 0.00 | 0.00 | 0.00 | 76 | 1007.3 |
| 20260505185149 | 28 | 168 | 1.6 | 3.2 | 0.00 | 0.00 | 0.00 | 76 | 1007.3 |
| 20260505184645 | 28 | 259 | 8.0 | 9.7 | 0.00 | 0.00 | 0.00 | 76 | 1007.3 |
| 20260505184143 | 28 | 274 | 4.8 | 8.0 | 0.00 | 0.00 | 0.00 | 76 | 1007.6 |
| 20260505183639 | 27 | 198 | 4.8 | 8.0 | 0.00 | 0.00 | 0.00 | 76 | 1007.3 |
| 20260505183137 | 27 | 188 | 3.2 | 3.2 | 0.00 | 0.00 | 0.00 | 77 | 1007.7 |
| 20260505182633 | 27 | 161 | 4.8 | 8.0 | 0.00 | 0.00 | 0.00 | 77 | 1007.8 |
| 20260505182130 | 27 | 204 | 4.8 | 4.8 | 0.00 | 0.00 | 0.00 | 77 | 1007.7 |
| 20260505181626 | 27 | 169 | 3.2 | 3.2 | 0.00 | 0.00 | 0.00 | 78 | 1007.7 |
| 20260505181124 | 27 | 216 | 8.0 | 9.7 | 0.00 | 0.00 | 0.00 | 77 | 1007.7 |
| 20260505180620 | 27 | 157 | 1.6 | 3.2 | 0.00 | 0.00 | 0.00 | 78 | 1007.8 |
| 20260505180118 | 27 | 133 | 3.2 | 8.0 | 0.00 | 0.00 | 0.00 | 79 | 1007.7 |
| 20260505175613 | 27 | 151 | 1.6 | 3.2 | 0.00 | 0.00 | 0.00 | 79 | 1007.8 |
| 20260505175110 | 27 | 260 | 0.0 | 0.0 | 0.00 | 0.00 | 0.00 | 79 | 1008.1 |
| 20260505174607 | 27 | 155 | 3.2 | 4.8 | 0.00 | 0.00 | 0.00 | 79 | 1008.0 |
| 20260505174103 | 27 | 136 | 3.2 | 4.8 | 0.00 | 0.00 | 0.00 | 79 | 1007.9 |
| 20260505173559 | 27 | 174 | 1.6 | 3.2 | 0.00 | 0.00 | 0.00 | 79 | 1008.1 |
| 20260505173056 | 27 | 174 | 3.2 | 4.8 | 0.00 | 0.00 | 0.00 | 79 | 1008.0 |
| 20260505172554 | 27 | 253 | 6.4 | 9.7 | 0.00 | 0.00 | 0.00 | 78 | 1007.9 |
| 20260505172050 | 27 | 154 | 3.2 | 8.0 | 0.00 | 0.00 | 0.00 | 78 | 1008.0 |
| 20260505171545 | 27 | 169 | 1.6 | 3.2 | 0.00 | 0.00 | 0.00 | 78 | 1007.9 |
| 20260505171043 | 27 | 253 | 6.4 | 9.7 | 0.00 | 0.00 | 0.00 | 78 | 1007.8 |
| 20260505170539 | 26 | 190 | 4.8 | 8.0 | 0.00 | 0.00 | 0.00 | 79 | 1008.1 |
| 20260505170036 | 26 | 123 | 0.0 | 1.6 | 0.00 | 0.00 | 0.00 | 80 | 1008.3 |
| 20260505165531 | 26 | 258 | 3.2 | 8.0 | 0.00 | 0.00 | 0.00 | 80 | 1008.1 |
| 20260505165027 | 26 | 210 | 0.0 | 0.0 | 0.00 | 0.00 | 0.00 | 80 | 1008.2 |
| 20260505164523 | 26 | 252 | 1.6 | 3.2 | 0.00 | 0.00 | 0.00 | 80 | 1008.4 |
| 20260505164021 | 26 | 230 | 4.8 | 8.0 | 0.00 | 0.00 | 0.00 | 80 | 1008.1 |
| 20260505163519 | 26 | 246 | 1.6 | 4.8 | 0.00 | 0.00 | 0.00 | 81 | 1008.3 |
| 20260505163015 | 25 | 220 | 4.8 | 4.8 | 0.00 | 0.00 | 0.00 | 82 | 1008.2 |
| 20260505162509 | 25 | 267 | 6.4 | 8.0 | 0.00 | 0.00 | 0.00 | 82 | 1008.3 |
| 20260505162006 | 25 | 166 | 4.8 | 4.8 | 0.00 | 0.00 | 0.00 | 82 | 1008.3 |
| 20260505161503 | 25 | 198 | 3.2 | 3.2 | 0.00 | 0.00 | 0.00 | 82 | 1008.3 |
| 20260505161000 | 25 | 234 | 0.0 | 1.6 | 0.00 | 0.00 | 0.00 | 81 | 1008.4 |
| 20260505160458 | 25 | 234 | 1.6 | 3.2 | 0.00 | 0.00 | 0.00 | 82 | 1008.2 |
| 20260505152934 | 25 | 288 | 1.6 | 3.2 | 0.00 | 0.00 | 0.00 | 83 | 1008.1 |
| 20260505152431 | 25 | 166 | 0.0 | 1.6 | 0.00 | 0.00 | 0.00 | 83 | 1007.9 |
| 20260505151926 | 25 | 158 | 3.2 | 3.2 | 0.00 | 0.00 | 0.00 | 83 | 1007.9 |
| 20260505151422 | 25 | 233 | 6.4 | 9.7 | 0.00 | 0.00 | 0.00 | 83 | 1008.0 |
| 20260505150920 | 25 | 169 | 1.6 | 1.6 | 0.00 | 0.00 | 0.00 | 83 | 1007.9 |
| 20260505150416 | 25 | 158 | 1.6 | 4.8 | 0.00 | 0.00 | 0.00 | 83 | 1007.8 |
| 20260505140340 | 23 | 268 | 1.6 | 3.2 | 0.00 | 0.00 | 0.00 | 87 | 1007.9 |
| 20260505130304 | 22 | 204 | 4.8 | 8.0 | 0.00 | 0.00 | 0.00 | 88 | 1007.9 |
| 20260505124754 | 22 | 184 | 1.6 | 1.6 | 0.00 | 0.00 | 0.00 | 88 | 1007.6 |
| 20260505124251 | 22 | 231 | 0.0 | 1.6 | 0.00 | 0.00 | 0.00 | 89 | 1007.6 |
| 20260505123746 | 22 | 147 | 0.0 | 0.0 | 0.00 | 0.00 | 0.00 | 89 | 1007.2 |
| 20260505123244 | 22 | 153 | 1.6 | 3.2 | 0.00 | 0.00 | 0.00 | 89 | 1007.2 |
| 20260505122740 | 22 | 140 | 0.0 | 1.6 | 0.00 | 0.00 | 0.00 | 89 | 1006.9 |
| 20260505122237 | 22 | 151 | 0.0 | 1.6 | 0.00 | 0.00 | 0.00 | 89 | 1007.3 |
| 20260505121734 | 22 | 181 | 0.0 | 1.6 | 0.00 | 0.00 | 0.00 | 89 | 1007.2 |
| 20260505121231 | 22 | 153 | 0.0 | 1.6 | 0.00 | 0.00 | 0.00 | 89 | 1007.3 |
| 20260505120727 | 22 | 135 | 0.0 | 3.2 | 0.00 | 0.00 | 0.00 | 89 | 1007.4 |
| 20260505120223 | 22 | 129 | 0.0 | 0.0 | 0.00 | 0.00 | 0.00 | 89 | 1007.2 |
| 20260505115721 | 22 | 142 | 0.0 | 1.6 | 0.00 | 0.00 | 0.00 | 88 | 1007.3 |
| 20260505115219 | 22 | 170 | 1.6 | 1.6 | 0.00 | 0.00 | 0.00 | 88 | 1007.1 |
| 20260505114717 | 22 | 148 | 0.0 | 0.0 | 0.00 | 0.00 | 0.00 | 88 | 1007.4 |
| 20260505114213 | 22 | 204 | 3.2 | 4.8 | 0.00 | 0.00 | 0.00 | 88 | 1007.0 |
| 20260505113709 | 22 | 158 | 0.0 | 3.2 | 0.00 | 0.00 | 0.00 | 88 | 1007.1 |
| 20260505113206 | 22 | 166 | 3.2 | 8.0 | 0.00 | 0.00 | 0.00 | 88 | 1007.1 |
| 20260505112702 | 22 | 146 | 0.0 | 0.0 | 0.00 | 0.00 | 0.00 | 88 | 1007.1 |
| 20260505112200 | 22 | 162 | 0.0 | 0.0 | 0.00 | 0.00 | 0.00 | 88 | 1007.2 |
| 20260505111700 | 22 | 105 | 0.0 | 1.6 | 0.00 | 0.00 | 0.00 | 88 | 1007.2 |
| 20260505111156 | 22 | 204 | 0.0 | 1.6 | 0.00 | 0.00 | 0.00 | 88 | 1007.0 |
| 20260505110652 | 22 | 168 | 0.0 | 0.0 | 0.00 | 0.00 | 0.00 | 88 | 1007.1 |
| 20260505110149 | 22 | 211 | 0.0 | 0.0 | 0.00 | 0.00 | 0.00 | 88 | 1007.1 |
| 20260505102125 | 21 | 163 | 0.0 | 0.0 | 0.00 | 0.00 | 0.00 | 88 | 1007.1 |
| 20260505101624 | 21 | 140 | 0.0 | 0.0 | 0.00 | 0.00 | 0.00 | 88 | 1007.0 |
| 20260505101120 | 21 | 156 | 0.0 | 1.6 | 0.00 | 0.00 | 0.00 | 88 | 1007.3 |
| 20260505100616 | 21 | 203 | 0.0 | 1.6 | 0.00 | 0.00 | 0.00 | 88 | 1007.5 |
| 20260505100113 | 21 | 240 | 3.2 | 3.2 | 0.00 | 0.00 | 0.00 | 88 | 1007.5 |
| 20260505095609 | 21 | 173 | 0.0 | 0.0 | 0.00 | 0.00 | 0.00 | 88 | 1007.8 |
| 20260505095106 | 21 | 129 | 1.6 | 4.8 | 0.00 | 0.00 | 0.00 | 88 | 1007.6 |
| 20260505094602 | 21 | 156 | 0.0 | 0.0 | 0.00 | 0.00 | 0.00 | 87 | 1007.2 |
| 20260505094058 | 21 | 165 | 0.0 | 0.0 | 0.00 | 0.00 | 0.00 | 87 | 1007.2 |
| 20260505093555 | 21 | 176 | 0.0 | 1.6 | 0.00 | 0.00 | 0.00 | 87 | 1007.4 |
| 20260505093053 | 21 | 33 | 0.0 | 0.0 | 0.00 | 0.00 | 0.00 | 87 | 1007.3 |
| 20260505092550 | 21 | 10 | 1.6 | 1.6 | 0.00 | 0.00 | 0.00 | 87 | 1007.4 |
| 20260505092048 | 21 | 163 | 0.0 | 0.0 | 0.00 | 0.00 | 0.00 | 87 | 1007.5 |
| 20260505091544 | 21 | 189 | 0.0 | 0.0 | 0.00 | 0.00 | 0.00 | 87 | 1007.6 |
| 20260505091043 | 21 | 197 | 1.6 | 4.8 | 0.00 | 0.00 | 0.00 | 87 | 1007.4 |
| 20260505090541 | 21 | 172 | 1.6 | 3.2 | 0.00 | 0.00 | 0.00 | 87 | 1007.4 |
| 20260505090038 | 21 | 156 | 0.0 | 0.0 | 0.00 | 0.00 | 0.00 | 87 | 1007.6 |
| 20260505085536 | 21 | 206 | 0.0 | 0.0 | 0.00 | 0.00 | 0.00 | 87 | 1007.8 |
| 20260505085034 | 21 | 158 | 0.0 | 0.0 | 0.00 | 0.00 | 0.00 | 87 | 1007.7 |
| 20260505084532 | 21 | 176 | 0.0 | 0.0 | 0.00 | 0.00 | 0.00 | 86 | 1007.7 |
| 20260505084030 | 21 | 148 | 0.0 | 0.0 | 0.00 | 0.00 | 0.00 | 86 | 1007.8 |
| 20260505083526 | 21 | 151 | 0.0 | 0.0 | 0.00 | 0.00 | 0.00 | 86 | 1007.7 |
| 20260505083023 | 21 | 281 | 0.0 | 0.0 | 0.00 | 0.00 | 0.00 | 86 | 1007.6 |
| 20260505082519 | 21 | 171 | 0.0 | 3.2 | 0.00 | 0.00 | 0.00 | 86 | 1008.1 |
| 20260505082016 | 21 | 154 | 1.6 | 3.2 | 0.00 | 0.00 | 0.00 | 86 | 1007.9 |
| 20260505081512 | 21 | 176 | 0.0 | 1.6 | 0.00 | 0.00 | 0.00 | 86 | 1007.7 |
| 20260505081009 | 21 | 167 | 0.0 | 0.0 | 0.00 | 0.00 | 0.00 | 86 | 1007.6 |
| 20260505080506 | 21 | 272 | 0.0 | 1.6 | 0.00 | 0.00 | 0.00 | 85 | 1008.0 |
| 20260505080002 | 21 | 308 | 0.0 | 1.6 | 0.00 | 0.00 | 0.00 | 85 | 1008.0 |
| 20260505075458 | 21 | 154 | 0.0 | 1.6 | 0.00 | 0.00 | 0.00 | 86 | 1007.8 |
| 20260505074955 | 21 | 156 | 0.0 | 0.0 | 0.00 | 0.00 | 0.00 | 86 | 1007.9 |
| 20260505074453 | 21 | 158 | 0.0 | 0.0 | 0.00 | 0.00 | 0.00 | 85 | 1008.1 |
| 20260505073949 | 21 | 150 | 0.0 | 0.0 | 0.00 | 0.00 | 0.00 | 85 | 1008.1 |
| 20260505073447 | 21 | 144 | 0.0 | 0.0 | 0.00 | 0.00 | 0.00 | 85 | 1008.2 |
| 20260505072944 | 21 | 147 | 1.6 | 3.2 | 0.00 | 0.00 | 0.00 | 85 | 1008.1 |
| 20260505072440 | 21 | 153 | 0.0 | 0.0 | 0.00 | 0.00 | 0.00 | 85 | 1008.3 |
| 20260505071936 | 21 | 210 | 0.0 | 0.0 | 0.00 | 0.00 | 0.00 | 85 | 1008.3 |
| 20260505071432 | 21 | 300 | 0.0 | 1.6 | 0.00 | 0.00 | 0.00 | 85 | 1008.6 |
| 20260505070931 | 21 | 163 | 0.0 | 0.0 | 0.00 | 0.00 | 0.00 | 85 | 1008.7 |
| 20260505070427 | 21 | 174 | 0.0 | 1.6 | 0.00 | 0.00 | 0.00 | 84 | 1008.8 |
| 20260505065923 | 21 | 155 | 0.0 | 0.0 | 0.00 | 0.00 | 0.00 | 84 | 1008.8 |
| 20260505065419 | 21 | 171 | 0.0 | 0.0 | 0.00 | 0.00 | 0.00 | 84 | 1008.6 |
| 20260505064916 | 21 | 152 | 0.0 | 0.0 | 0.00 | 0.00 | 0.00 | 84 | 1008.7 |
| 20260505064414 | 21 | 157 | 0.0 | 0.0 | 0.00 | 0.00 | 0.00 | 84 | 1008.7 |
| 20260505063912 | 21 | 177 | 6.4 | 8.0 | 0.00 | 0.00 | 0.00 | 84 | 1008.5 |
| 20260505063408 | 21 | 170 | 0.0 | 0.0 | 0.00 | 0.00 | 0.00 | 84 | 1008.6 |
| 20260505062904 | 21 | 169 | 0.0 | 1.6 | 0.00 | 0.00 | 0.00 | 84 | 1008.6 |
| 20260505062402 | 21 | 152 | 0.0 | 0.0 | 0.00 | 0.00 | 0.00 | 83 | 1008.7 |
| 20260505061858 | 21 | 173 | 0.0 | 0.0 | 0.00 | 0.00 | 0.00 | 83 | 1008.8 |
| 20260505061356 | 21 | 147 | 0.0 | 0.0 | 0.00 | 0.00 | 0.00 | 83 | 1009.0 |
| 20260505060854 | 21 | 164 | 1.6 | 3.2 | 0.00 | 0.00 | 0.00 | 83 | 1009.0 |
| 20260505060350 | 21 | 144 | 0.0 | 0.0 | 0.00 | 0.00 | 0.00 | 82 | 1008.9 |
| 20260505055847 | 21 | 169 | 0.0 | 0.0 | 0.00 | 0.00 | 0.00 | 82 | 1009.1 |
| 20260505055342 | 21 | 179 | 0.0 | 1.6 | 0.00 | 0.00 | 0.00 | 82 | 1008.7 |
| 20260505054840 | 21 | 207 | 4.8 | 8.0 | 0.00 | 0.00 | 0.00 | 82 | 1008.8 |
| 20260505054337 | 21 | 160 | 0.0 | 0.0 | 0.00 | 0.00 | 0.00 | 82 | 1009.0 |
| 20260505053835 | 21 | 207 | 0.0 | 0.0 | 0.00 | 0.00 | 0.00 | 82 | 1008.9 |
| 20260505053332 | 22 | 142 | 0.0 | 0.0 | 0.00 | 0.00 | 0.00 | 81 | 1009.1 |
| 20260505052829 | 22 | 188 | 0.0 | 0.0 | 0.00 | 0.00 | 0.00 | 81 | 1009.2 |
| 20260505052326 | 22 | 186 | 0.0 | 1.6 | 0.00 | 0.00 | 0.00 | 81 | 1008.9 |
| 20260505051823 | 22 | 169 | 0.0 | 1.6 | 0.00 | 0.00 | 0.00 | 81 | 1009.1 |
| 20260505051320 | 22 | 189 | 1.6 | 1.6 | 0.00 | 0.00 | 0.00 | 81 | 1009.2 |
| 20260505050818 | 22 | 165 | 0.0 | 0.0 | 0.00 | 0.00 | 0.00 | 81 | 1009.3 |
| 20260505050317 | 22 | 163 | 0.0 | 0.0 | 0.00 | 0.00 | 0.00 | 81 | 1009.3 |
| 20260505041746 | 22 | 153 | 1.6 | 3.2 | 0.00 | 0.00 | 0.00 | 80 | 1009.0 |
| 20260505041243 | 22 | 185 | 0.0 | 0.0 | 0.00 | 0.00 | 0.00 | 80 | 1009.2 |
| 20260505040741 | 22 | 164 | 0.0 | 0.0 | 0.00 | 0.00 | 0.00 | 79 | 1009.0 |
| 20260505040238 | 22 | 161 | 0.0 | 0.0 | 0.00 | 0.00 | 0.00 | 79 | 1009.2 |
| 20260505035735 | 22 | 153 | 0.0 | 0.0 | 0.00 | 0.00 | 0.00 | 79 | 1009.3 |
| 20260505035231 | 22 | 156 | 1.6 | 3.2 | 0.00 | 0.00 | 0.00 | 79 | 1009.1 |
| 20260505034728 | 22 | 153 | 0.0 | 0.0 | 0.00 | 0.00 | 0.00 | 79 | 1009.4 |
| 20260505034224 | 22 | 49 | 0.0 | 0.0 | 0.00 | 0.00 | 0.00 | 78 | 1009.3 |
| 20260505033721 | 22 | 153 | 0.0 | 0.0 | 0.00 | 0.00 | 0.00 | 78 | 1009.2 |
| 20260505033219 | 22 | 152 | 0.0 | 0.0 | 0.00 | 0.00 | 0.00 | 78 | 1009.3 |
| 20260505032717 | 23 | 196 | 0.0 | 1.6 | 0.00 | 0.00 | 0.00 | 77 | 1009.2 |
| 20260505032212 | 23 | 188 | 1.6 | 1.6 | 0.00 | 0.00 | 0.00 | 77 | 1009.3 |
| 20260505031710 | 23 | 117 | 1.6 | 3.2 | 0.00 | 0.00 | 0.00 | 77 | 1009.5 |
| 20260505031206 | 23 | 169 | 4.8 | 8.0 | 0.00 | 0.00 | 0.00 | 77 | 1009.3 |
| 20260505030703 | 23 | 157 | 0.0 | 1.6 | 0.00 | 0.00 | 0.00 | 77 | 1009.2 |
| 20260505030159 | 23 | 162 | 0.0 | 0.0 | 0.00 | 0.00 | 0.00 | 76 | 1009.3 |
| 20260505025655 | 23 | 187 | 0.0 | 0.0 | 0.00 | 0.00 | 0.00 | 76 | 1009.5 |
| 20260505025154 | 23 | 158 | 4.8 | 9.7 | 0.00 | 0.00 | 0.00 | 76 | 1009.3 |
| 20260505024651 | 23 | 117 | 8.0 | 12.9 | 0.00 | 0.00 | 0.00 | 76 | 1009.1 |
| 20260505024148 | 23 | 153 | 0.0 | 0.0 | 0.00 | 0.00 | 0.00 | 76 | 1009.1 |
| 20260505023646 | 23 | 149 | 0.0 | 1.6 | 0.00 | 0.00 | 0.00 | 76 | 1009.1 |
| 20260505023143 | 23 | 170 | 0.0 | 0.0 | 0.00 | 0.00 | 0.00 | 76 | 1009.1 |
| 20260505022640 | 23 | 162 | 0.0 | 0.0 | 0.00 | 0.00 | 0.00 | 76 | 1009.0 |
| 20260505022137 | 23 | 168 | 1.6 | 3.2 | 0.00 | 0.00 | 0.00 | 76 | 1009.0 |
| 20260505021634 | 23 | 142 | 0.0 | 0.0 | 0.00 | 0.00 | 0.00 | 76 | 1009.3 |
| 20260505021131 | 23 | 125 | 0.0 | 1.6 | 0.00 | 0.00 | 0.00 | 76 | 1009.0 |
| 20260505020626 | 23 | 147 | 1.6 | 1.6 | 0.00 | 0.00 | 0.00 | 75 | 1009.2 |
| 20260505020122 | 23 | 151 | 0.0 | 0.0 | 0.00 | 0.00 | 0.00 | 75 | 1009.0 |
| 20260505015620 | 23 | 161 | 0.0 | 0.0 | 0.00 | 0.00 | 0.00 | 75 | 1009.0 |
| 20260505015116 | 23 | 176 | 1.6 | 3.2 | 0.00 | 0.00 | 0.00 | 75 | 1009.0 |
| 20260505014613 | 23 | 280 | 1.6 | 3.2 | 0.00 | 0.00 | 0.00 | 75 | 1008.8 |
| 20260505014110 | 23 | 187 | 1.6 | 1.6 | 0.00 | 0.00 | 0.00 | 74 | 1008.9 |
| 20260505013608 | 24 | 151 | 0.0 | 0.0 | 0.00 | 0.00 | 0.00 | 74 | 1008.7 |
| 20260505013104 | 24 | 240 | 1.6 | 1.6 | 0.00 | 0.00 | 0.00 | 73 | 1008.8 |
| 20260505012603 | 24 | 149 | 1.6 | 3.2 | 0.00 | 0.00 | 0.00 | 73 | 1008.5 |
| 20260505012059 | 24 | 98 | 0.0 | 0.0 | 0.00 | 0.00 | 0.00 | 73 | 1008.5 |
| 20260505011554 | 24 | 149 | 1.6 | 3.2 | 0.00 | 0.00 | 0.00 | 73 | 1008.5 |
| 20260505011052 | 25 | 152 | 0.0 | 1.6 | 0.00 | 0.00 | 0.00 | 72 | 1008.6 |
| 20260505010547 | 25 | 172 | 0.0 | 0.0 | 0.00 | 0.00 | 0.00 | 72 | 1008.5 |
| 20260505010044 | 25 | 163 | 0.0 | 1.6 | 0.00 | 0.00 | 0.00 | 72 | 1008.6 |
| 20260505005540 | 25 | 156 | 0.0 | 1.6 | 0.00 | 0.00 | 0.00 | 72 | 1008.5 |
| 20260505005038 | 25 | 168 | 1.6 | 1.6 | 0.00 | 0.00 | 0.00 | 71 | 1008.9 |